OpenBCM V1.13 (Linux)

Packet Radio Mailbox

DB0FHN

[JN59NK Nuernberg]

 Login: GUEST





  
LU9DCE > KEP      04.07.19 20:34l 247 Lines 12054 Bytes #999 (0) @ WW
BID : 28131_LU9DCE
Read: DJ6UX DF7EAV GUEST
Subj: TLE 04 07
Path: DB0FHN<DB0BLO<DB0ERF<OK0NAG<OK0NBR<SR8BBS<SR4BBX<SR9ZAA<VE2PKT<N3HYM<
      LU9DCE
Sent: 190704/1800Z 28131@LU9DCE.TOR.BA.ARG.SOAM LinBPQ6.0.18

            __    _  _  ___  ____   ___  ____    ____  ____  ____
           (  )  / )( \/ _ \(    \ / __)(  __)  (  _ \(  _ \/ ___)
           / (_/\) \/ (\__  )) D (( (__  ) _)    ) _ ( ) _ (\___ \
           \____/\____/(___/(____/ \___)(____)  (____/(____/(____/
               ESTACION DE PACKET RADIO - BUENOS AIRES (GF05OM)
                   BOLETINES INFORMATIVOS PROGRAMADOS (BIP)
                  SLACKWARE LINUX - HELLOCODELINUX@GMAIL.COM

+----------------------------------------------------------------------------+
OSCAR 7
1  7530U 74089B   19185.18912253 -.00000046  00000-0 -68554-5 0  9993
2  7530 101.7445 152.6917 0011947 319.3227 111.2896 12.53638678 42462
OSCAR 11 (UoSAT 2)
1 14781U 84021B   19184.94796899 +.00000028 +00000-0 +96168-5 0  9995
2 14781 097.6098 208.9446 0006929 269.6140 090.4280 14.83093316880028
OSCAR 19 (LUSAT)
1 20442U 90005G   19184.82163344 -.00000026  00000-0  66378-5 0  9994
2 20442  98.6492 126.7967 0012893 103.3854 256.8768 14.32927874538541
EYESAT A
1 22825U 93061C   19184.96254032 -.00000025 +00000-0 +83945-5 0  9994
2 22825 098.9034 173.9482 0007696 320.7852 039.2771 14.30061515343862
ITAMSAT
1 22826U 93061D   19185.52025190 -.00000023  00000-0  91249-5 0  9993
2 22826  98.8975 174.5081 0008022 306.4400  53.6041 14.30395192344415
RADIO ROSTO
1 23439U 94085A   19184.94824212 -.00000042 +00000-0 +33801-5 0  9999
2 23439 064.8174 091.4538 0146167 110.2241 251.4466 11.27568226009613
JAS 2
1 24278U 96046B   19185.37399737 -.00000020  00000-0  16383-4 0  9998
2 24278  98.5392 336.6586 0350028 199.1846 159.5834 13.53092554129929
TECHSAT 1B
1 25397U 98043D   19184.87046328 -.00000027 +00000-0 +71805-5 0  9997
2 25397 098.6892 124.8311 0001663 037.3616 322.7678 14.23667211089816
ISS (ZARYA)
1 25544U 98067A   19185.51971097 -.00000465  00000-0  00000+0 0  9998
2 25544  51.6434 275.2772 0007206 104.5817  11.5656 15.50954593177946
PCSAT
1 26931U 01043C   19185.51104706 -.00000041  00000-0  15895-4 0  9995
2 26931  67.0519 322.8582 0006900 277.9456  82.0862 14.30546080927236
SAUDISAT 1C
1 27607U 02058C   19185.54152404 -.00000047  00000-0  14373-4 0  9990
2 27607  64.5554   1.1377 0080837 253.4686 105.7525 14.75556117889374
CUTE-1
1 27844U 03031E   19184.91983194 +.00000018 +00000-0 +28026-4 0  9990
2 27844 098.6832 192.9054 0009647 354.8040 005.3037 14.22183527830412
CUBESAT XI 4
1 27848U 03031J   19184.91630856 +.00000016 +00000-0 +26903-4 0  9998
2 27848 098.6909 193.4052 0009772 006.2642 353.8656 14.21778063830276
MOZHAYETS 4
1 27939U 03042A   19185.53338216  .00000074  00000-0  21775-4 0  9991
2 27939  98.0432 321.0415 0013311  22.8753 337.3039 14.66788402842862
CUBESAT XI 5
1 28895U 05043F   19185.09497169  .00000050  00000-0  18559-4 0  9990
2 28895  97.9612 327.2996 0015560 305.8403  54.1354 14.63671839729734
CUTE-1.7+APD II
1 32785U 08021C   19184.87987477  .00000137  00000-0  20417-4 0  9995
2 32785  97.5493 183.8779 0012261 206.5298 153.5294 14.88315824605948
DELFI C3
1 32789U 08021G   19185.48779202  .00001354  00000-0  94380-4 0  9994
2 32789  97.4631 234.6759 0013801  74.6177 285.6575 15.06977317609348
SEEDS
1 32791U 08021J   19184.80568492 +.00000154 +00000-0 +20962-4 0  9991
2 32791 097.5275 189.7965 0013250 180.4982 179.6226 14.90828348606289
YUBELEINY
1 32953U 08025A   19185.49994687  .00000021  00000-0  75656-4 0  9993
2 32953  82.5017 134.9354 0020459  93.1570 267.1852 12.43090360504278
PRISM (HITOMI)
1 33493U 09002B   19185.37365339  .00000167  00000-0  20185-4 0  9990
2 33493  98.1214 106.9239 0015962 128.2069 232.0592 14.96662180567497
KKS-1 (KISEKI)
1 33499U 09002H   19185.54391972  .00000054  00000-0  15983-4 0  9992
2 33499  98.3493  24.7563 0009769 149.1045 211.0740 14.75445414561565
SWISSCUBE
1 35932U 09051B   19185.12492094  .00000068  00000-0  26328-4 0  9991
2 35932  98.5892 351.5503 0008810 115.0625 245.1487 14.56289002519029
BEESAT
1 35933U 09051C   19184.92083536 +.00000050 +00000-0 +22301-4 0  9994
2 35933 098.5918 353.1053 0006860 125.7257 234.4579 14.56377550519028
ITUPSAT 1
1 35935U 09051E   19185.46849736  .00000038  00000-0  19929-4 0  9996
2 35935  98.6028 353.9064 0009200 123.4307 236.7770 14.55537176518933
XIWANG-1 (HOPE-1)
1 36122U 09072B   19184.70864941 -.00000018 +00000-0 +63291-4 0  9999
2 36122 100.0725 186.3820 0007229 315.7791 044.2728 13.16350387458856
TISAT 1
1 36799U 10035E   19185.11650233  .00000271  00000-0  33480-4 0  9990
2 36799  98.1575 337.7814 0013085  40.8718 319.3478 14.91110870487061
JUGNU
1 37839U 11058B   19185.50090449  .00000292  00000-0  14044-4 0  9990
2 37839  19.9603 238.9130 0018883 140.5737 352.7992 14.12653143399492
SRMSAT
1 37841U 11058D   19184.72714223  .00000304  00000-0  21838-4 0  9992
2 37841  19.9728 300.6907 0011933   2.2133 147.7686 14.10634543398824
M-CUBED/EXP-1 PRIME
1 37855U 11061F   19185.15205523  .00001248  00000-0  70017-4 0  9998
2 37855 101.7131  88.6857 0173739  31.0129 330.1203 15.05444483419107
HORYU 2
1 38340U 12025D   19185.50951925  .00000116  00000-0  24942-4 0  9991
2 38340  98.3278 224.5743 0012852  76.1864 284.0774 14.75724281383494
STRAND 1
1 39090U 13009E   19185.12501258  .00000007  00000-0  17517-4 0  9994
2 39090  98.4872  30.8239 0008046 239.7234 120.3155 14.35088634332607
SOMP
1 39134U 13015E   19184.81987180 +.00000719 +00000-0 +42206-4 0  9990
2 39134 064.8635 331.4244 0031401 302.1314 057.6767 15.20174295342517
BEESAT 3
1 39135U 13015F   19185.42788962  .00000621  00000-0  40632-4 0  9999
2 39135  64.8696 347.9733 0023203 319.3306  40.6087 15.17485544342630
BEESAT 2
1 39136U 13015G   19185.53675454  .00000647  00000-0  42550-4 0  9992
2 39136  64.8705 351.4920 0019954 299.3298  60.5834 15.16914114342578
CUBEBUG 1
1 39153U 13018D   19185.50997321  .00000111  00000-0  21363-4 0  9996
2 39153  97.9792 283.5463 0017876 143.6672 216.5758 14.80571030334154
ZACUBE
1 39417U 13066B   19185.51355849  .00000133  00000-0  23228-4 0  9992
2 39417  97.5617 198.1259 0058458 343.6932  16.2398 14.81119951303382
TRITON 1
1 39427U 13066M   19185.47521486  .00000159  00000-0  33034-4 0  9994
2 39427  97.6768 161.8782 0115199 114.5979 246.7281 14.67845688300656
GOMX 1
1 39430U 13066Q   19185.46212339  .00000097  00000-0  26647-4 0  9994
2 39430  97.7475 140.9764 0150559 204.0666 155.3447 14.59256794298909
HUMSAT D
1 39433U 13066T   19185.17097528  .00000142  00000-0  19273-4 0  9994
2 39433  97.5524 232.0440 0029288 247.8603 111.9507 14.92199049305381
CUBEBUG 2
1 39440U 13066AA  19184.93806839 +.00000146 +00000-0 +27186-4 0  9994
2 39440 097.6020 182.4744 0081249 036.3824 324.2871 14.75857744301021
FUNCUBE 1
1 39444U 13066AE  19185.50538627  .00000170  00000-0  27364-4 0  9994
2 39444  97.5598 200.0792 0057408 337.4931  22.3765 14.81939371302278
UWE-3
1 39446U 13066AG  19185.52516815  .00000131  00000-0  24051-4 0  9990
2 39446  97.5808 190.0669 0070306   9.7383 350.5172 14.78392520301606
SPROUT
1 39770U 14029E   19185.23937517  .00000278  00000-0  36859-4 0  9995
2 39770  97.8855 288.4309 0010083  41.8753 318.3266 14.87348905277143
UNISAT 6
1 40012U 14033C   19185.49292474  .00000129  00000-0  26496-4 0  9996
2 40012  97.7558  51.4225 0059538  47.8608 312.7638 14.73981611271014
DUCHIFAT 1
1 40021U 14033M   19185.52025798  .00000256  00000-0  32032-4 0  9997
2 40021  97.9239 110.1664 0013136   5.0865 355.0484 14.90634856273901
QB50P1
1 40025U 14033R   19185.49290522  .00000153  00000-0  22289-4 0  9995
2 40025  97.9058 105.1520 0012864  14.4397 345.7185 14.88947679273675
CHUBUSAT 1
1 40300U 14070C   19185.43238488  .00000479  00000-0  23857-4 0  9992
2 40300  97.3272 259.2164 0020464   4.4252  53.1691 15.22095014258415
NUDT-PHONESAT
1 40900U 15049B   19185.49010947  .00001470  00000-0  65755-4 0  9994
2 40900  97.4368 194.6687 0014342 125.3444  23.7433 15.22808504210066
ZDPS 2A
1 40901U 15049C   19185.44211068  .00000405  00000-0  23373-4 0  9994
2 40901  97.4587 191.0370 0014376 142.8026 352.6975 15.17731889209627
ZDPS 2B
1 40902U 15049D   19185.53166250  .00000954  00000-0  50786-4 0  9994
2 40902  97.4536 188.6231 0014445 139.1165 336.7977 15.17553348209616
XW-2A
1 40903U 15049E   19185.55778066  .00001539  00000-0  38169-4 0  9992
2 40903  97.3366 228.4104 0015452  88.3503  50.5155 15.41875286212695
KAITUO 1A
1 40904U 15049F   19185.46061913  .00000245  00000-0  16454-4 0  9995
2 40904  97.4661 187.1985 0015272 147.7664   7.8924 15.15367493209389
OBJECT G
1 40905U 15049G   19185.41087650  .00000387  00000-0  24660-4 0  9992
2 40905  97.4705 184.6893 0016310 143.0102 323.1845 15.14295245209255
XW-2C
1 40906U 15049H   19185.45980037  .00000319  00000-0  20183-4 0  9999
2 40906  97.4666 187.2761 0016032 140.1797  22.9861 15.15678632209386
XW-2D
1 40907U 15049J   19185.43078693  .00000272  00000-0  17668-4 0  9996
2 40907  97.4645 186.9259 0015098 136.9893   0.6181 15.15865589209391
LILACSAT 2
1 40908U 15049K   19185.52879720  .00000412  00000-0  26344-4 0  9994
2 40908  97.4774 185.8589 0016808 143.1787 333.8401 15.13806100209209
XW-2F
1 40910U 15049M   19185.29731575  .00000452  00000-0  26021-4 0  9992
2 40910  97.4616 188.7970 0015936 130.9208 286.5855 15.17299865209380
XW-2B
1 40911U 15049N   19185.52686624  .00000539  00000-0  31651-4 0  9994
2 40911  97.4671 187.6703 0014968 137.3755 342.1438 15.15798478209306
KAITUO 1B
1 40912U 15049P   19185.37956883  .00000658  00000-0  34035-4 0  9996
2 40912  97.4491 192.5294 0016455 114.9333 352.3308 15.19612756209692
TIANWANG 1C (TW-1C)
1 40926U 15051B   19185.40272054  .00009184  00000-0  13366-3 0  9995
2 40926  97.1354 231.5572 0006874 325.1249  92.6428 15.55943348212607
